Regional Weather Roundup
Issued by NWS

Home | Current Version | Previous Version | Graphics & Text | Print | Product List | Glossary On
Versions: 1 2 3 4 5 6 7 8 9 10 11 12 13 14 15 16 17 18 19 20 21 22 23 24 25 26 27 28 29 30 31 32 33 34 35 36 37 38 39 40 41 42 43 44 45 46 47 48 49 50
000
ASUS45 KABQ 211501
RWRNM
NEW MEXICO REGIONAL WEATHER ROUNDUP
NATIONAL WEATHER SERVICE ALBUQUERQUE NM
800 AM MST SUN JAN 21 2018

NOTE: "FAIR" MEANS FEW OR NO CLOUDS BELOW 12,000 FEET AGL WITH NO
       SIGNIFICANT WEATHER OR OBSTRUCTIONS TO VISION.

      THIS PRODUCT IS RELEASED AS TWO VERSIONS.  ONE VERSION NEAR
      THE TOP OF THE HOUR CONTAINING PRELIMINARY DATA FROM ALBUQUERQUE
      AND OTHER STATIONS.  A FINAL VERSION WITH ADDITIONAL DATA IS
      ISSUED ABOUT 10 MINUTES AFTER THE HOUR.

NMZ501-503-504-510>518-211600-
NORTHWEST PLATEAU/NORTHCENTRAL MOUNTAINS

CITY           SKY/WX    TMP DP  RH WIND       PRES   REMARKS
FARMINGTON     LGT SNOW  26  24  92 W23G32    29.80R FOG     WCI  11
LOS ALAMOS     CLOUDY    23  20  89 SW6       29.72R WCI  15
SANTA FE       CLOUDY    24  22  91 SW12G21   29.76S WCI  13
TAOS           FLURRIES  22  19  89 SW13      29.73R WCI  10
ANGEL FIRE     LGT SNOW  19  15  84 W16       29.66S WCI   4

$$
NMZ402-403-502-505>509-211600-
WESTCENTRAL MOUNTAINS/SOUTHWEST MOUNTAINS

CITY           SKY/WX    TMP DP  RH WIND       PRES   REMARKS
GALLUP         MOCLDY    20  15  81 W14       29.88R WCI   7
GRANTS         FAIR      25  13  61 W24G38    29.83R WCI   9
SILVER CITY    CLOUDY    29  22  74 W7        30.03R WCI  22

$$
NMZ407-409-411-412-211600-
SOUTHERN DESERTS

CITY           SKY/WX    TMP DP  RH WIND       PRES   REMARKS
DEMING         FAIR      35  22  58 W15       30.03R WCI  25
LAS CRUCES     FAIR      37  20  51 W31G44    30.01R WCI  24
HOLLOMAN AFB   FAIR      38  14  36 S10       30.00S WCI  32
ALAMOGORDO     FAIR      34  14  44 S7        29.99R WCI  28
T OR C         FAIR      38  15  39 CALM      29.95R

$$
NMZ519>523-211600-
CENTRAL VALLEYS/CENTRAL HIGHLANDS

CITY           SKY/WX    TMP DP  RH WIND       PRES   REMARKS
ALBUQUERQUE    MOCLDY    30  19  63 SW14G21   29.85R WCI  19
DOUBLE EAGLE   MOCLDY    27  19  74 SW18G25   29.81R WCI  13
MORIARTY ARPT  LGT SNOW  29  23  79 SW24G31   29.78F WCI  14
CLINES CORNERS MOCLDY    22  15  75 W17G25    29.77S WCI   8
BELEN          FAIR      33  19  56 W20G31    29.86F WCI  21
SOCORRO        FAIR      32  12  43 CALM      29.88R

$$
NMZ524>526-539-540-211600-
SOUTHCENTRAL MOUNTAINS

CITY           SKY/WX    TMP DP  RH WIND       PRES   REMARKS
RUIDOSO        NOT AVBL

$$
NMZ527>531-211600-
NORTHEAST HIGHLANDS/NORTHEAST PLAINS

CITY           SKY/WX    TMP DP  RH WIND       PRES   REMARKS
LAS VEGAS      FAIR      24  16  71 W24G35    29.68F WCI   8
RATON          FAIR      24  10  55 NE3       29.61F
CLAYTON        CLOUDY    28  24  85 NE13      29.67F WCI  17

$$
NMZ532>537-211600-
EASTCENTRAL PLAINS

CITY           SKY/WX    TMP DP  RH WIND       PRES   REMARKS
TUCUMCARI      FAIR      42  25  50 W22G31    29.73S
CANNON AFB     FAIR      39  30  70 W17G23    29.80R WCI  30
CLOVIS AIRPORT FAIR      41  28  60 W10       29.80R

$$
NMZ028-029-538-211600-
SOUTHEAST PLAINS

CITY           SKY/WX    TMP DP  RH WIND       PRES   REMARKS
ROSWELL        FAIR      45  15  30 W9        29.86R
ARTESIA        FAIR      46  12  25 W17       29.89R
CARLSBAD       FAIR      49  25  39 W7        29.89R
HOBBS          SUNNY     48  30  49 W17G24    29.87R


$$



USA.gov is the U.S. government's official web portal to all federal, state and local government web resources and services.